Regional Weather Roundup
Issued by NWS

Home | Current Version | Previous Version | Graphics & Text | Print | Product List | Glossary On
Versions: 1 2 3 4 5 6 7 8 9 10 11 12 13 14 15 16 17 18 19 20 21 22 23 24 25 26 27 28 29 30 31 32 33 34 35 36 37 38 39 40 41 42 43 44 45 46 47 48 49 50
000
ASUS43 KDTX 280010
RWRMI
MICHIGAN HOURLY REGIONAL WEATHER ROUNDUP
NATIONAL WEATHER SERVICE DETROIT/PONTIAC MI
700 PM EST SAT DEC 27 2014

NOTE: "FAIR" INDICATES FEW OR NO CLOUDS BELOW 12,000 FEET WITH NO
SIGNIFICANT WEATHER AND/OR OBSTRUCTION TO VISIBILITY.

MIZ047>049-052>055-059>063-066>070-074>076-081>083-280100-
SOUTHEAST LOWER MICHIGAN

CITY           SKY/WX    TMP DP  RH WIND       PRES   REMARKS
ADRIAN         CLOUDY    46  45  96 SW8       29.97F
6HR MIN TEMP:  45; 6HR MAX TEMP:  47;

ALMA           CLOUDY    38  33  83 W15G24    29.93S WCI  29
ANN ARBOR      CLOUDY    47  45  93 SW13      29.94F
BAD AXE        CLOUDY    46  43  90 W23G37    29.85R
6HR MIN TEMP:  46; 6HR MAX TEMP:  49;

CARO           CLOUDY    44  37  76 W18G30    29.88R
DETROIT CITY   CLOUDY    50  44  80 SW15G24   29.94F
6HR MIN TEMP:  47; 6HR MAX TEMP:  50;

DETROIT        CLOUDY    47  45  93 S15       29.95F
6HR MIN TEMP:  47; 6HR MAX TEMP:  48; 6HR PCP: TRACE;

FLINT          CLOUDY    45  38  76 W13       29.93R
6HR MIN TEMP:  45; 6HR MAX TEMP:  51; 6HR PCP:  0.01;

GROSSE ILE     CLOUDY    48  45  87 SW9G20    29.95F
HILLSDALE      CLOUDY    45  40  84 W10       29.96F
HOWELL         CLOUDY    41  37  84 W18G25    29.93R
6HR MIN TEMP:  41; 6HR MAX TEMP:  47;


CITY           SKY/WX    TMP DP  RH WIND       PRES   REMARKS
JACKSON        CLOUDY    41  35  79 W14G23    29.95S
6HR MIN TEMP:  41; 6HR MAX TEMP:  48; 6HR PCP:  0.01;

LAMBERTVILLE   CLOUDY    48  45  87 SW9G16    29.99F
LANSING        CLOUDY    39  33  79 W20G28    29.96S WCI  29
6HR MIN TEMP:  39; 6HR MAX TEMP:  49; 6HR PCP:  0.02;

LAPEER         LGT RAIN  47  42  84 W20G28    29.90S
MASON          CLOUDY    39  34  80 W17       29.96R WCI  30
MONROE         CLOUDY    46  45  93 SW10G17   29.95F
MT. CLEMENS    MOCLDY    48  43  81 SW14      29.89F
6HR MIN TEMP:  46; 6HR MAX TEMP:  48; 6HR PCP: TRACE;

PONTIAC        CLOUDY    48  43  82 SW13G21   29.89F
6HR MIN TEMP:  44; 6HR MAX TEMP:  48; 6HR PCP: TRACE;

PORT HOPE        N/A     48  41  76 W14G26    29.80S
6HR MIN TEMP:  46; 6HR MAX TEMP:  50;

PORT HURON     CLOUDY    46  45  93 SW13      29.90F
TRI CITIES     CLOUDY    42  34  73 W20G30    29.90R
6HR MIN TEMP:  42; 6HR MAX TEMP:  50; 6HR PCP: TRACE;

TROY           CLOUDY    49  45  85 SW13      29.93F
SAGINAW HB     CLOUDY    43  36  75 SW18G29   29.89R
$$
MIZ043>046-050>051-056>058-064>065-071>073-077>080-280100-
SOUTHWEST LOWER MICHIGAN

CITY           SKY/WX    TMP DP  RH WIND       PRES   REMARKS
BATTLE CREEK   CLOUDY    39  32  76 W17G24    29.99R WCI  30
6HR MIN TEMP:  39; 6HR MAX TEMP:  49; 6HR PCP:  0.01;

BENTON HARBOR  CLOUDY    36  30  79 W21G29    30.06R WCI  25
6HR MIN TEMP:  36; 6HR MAX TEMP:  49; 6HR PCP: TRACE;

BIG RAPIDS     CLOUDY    37  34  89 W15G26    29.91R WCI  28
6HR MIN TEMP:  37; 6HR MAX TEMP:  47; 6HR PCP:  0.04;

COLDWATER      CLOUDY    40  35  81 W14G22    29.99S WCI  32
6HR MIN TEMP:  40; 6HR MAX TEMP:  47;

FREMONT        CLOUDY    36  31  83 W16G24    29.95S WCI  26
6HR MIN TEMP:  36; 6HR MAX TEMP:  46;

HOLLAND        CLOUDY    39  31  72 W16G25    30.01R WCI  30
6HR MIN TEMP:  39; 6HR MAX TEMP:  50; 6HR PCP:  0.01;

GRAND RAPIDS   CLOUDY    37  31  78 W16G26    29.99R WCI  28
6HR MIN TEMP:  37; 6HR MAX TEMP:  49; 6HR PCP:  0.01;

IONIA          CLOUDY    38  33  80 W14G24    29.95R WCI  30
KALAMAZOO      CLOUDY    38  31  76 W18G26    30.03R WCI  28
6HR MIN TEMP:  38; 6HR MAX TEMP:  49; 6HR PCP: TRACE;

LUDINGTON      CLOUDY    37  34  87 W8        29.95R WCI  31
MARSHALL       CLOUDY    37  33  84 W17G25    29.98R WCI  27
MOUNT PLEASANT CLOUDY    38  33  80 SW14      29.90R WCI  30
MUSKEGON       CLOUDY    38  30  73 W17G30    29.99R WCI  28
6HR MIN TEMP:  38; 6HR MAX TEMP:  46; 6HR PCP:  0.01;

SOUTH HAVEN    CLOUDY    38  31  76 W13G23    30.05R WCI  30
$$
MIZ016>042-280100-
NORTHERN LOWER MICHIGAN

CITY           SKY/WX    TMP DP  RH WIND       PRES   REMARKS
ALPENA         CLOUDY    41  35  79 W16G24    29.78S
6HR MIN TEMP:  41; 6HR MAX TEMP:  48; 6HR PCP:  0.03;

BEAVER ISLAND  LGT SNOW  32  31  94 NW12      29.89R WCI  23
6HR MIN TEMP:  32; 6HR MAX TEMP:  35;

BELLAIRE       FLURRIES  34  32  93 NW5       29.89R WCI  30
6HR MIN TEMP:  34; 6HR MAX TEMP:  46;

CADILLAC       CLOUDY    34  32  94 W14       29.86S WCI  24
CHARLEVOIX     FLURRIES  33  32  94 NW12      29.91R WCI  25
6HR MIN TEMP:  33; 6HR MAX TEMP:  44;

FRANKFORT      LGT RAIN  34  33  95 N7        29.92R WCI  28
GAYLORD        LGT SNOW  31  32 100 NW8G20    29.83R WCI  23
6HR MIN TEMP:  31; 6HR MAX TEMP:  43; 6HR PCP:  0.24;

GRAYLING       CLOUDY    36  34  94 W13G18    29.84R WCI  27
6HR MIN TEMP:  36; 6HR MAX TEMP:  46;

HARBOR SPRINGS CLOUDY    33  30  89 W8        29.86R WCI  26
HOUGHTON LAKE  CLOUDY    36  32  85 W18G29    29.85R WCI  26
6HR MIN TEMP:  36; 6HR MAX TEMP:  45; 6HR PCP:  0.05;

MANISTEE       CLOUDY    36  30  80 NW9       29.93S WCI  29
OSCODA         CLOUDY    45  37  74 W24G31    29.78R
PELLSTON       CLOUDY    33  30  88 NW16G28   29.85R WCI  23
6HR MIN TEMP:  33; 6HR MAX TEMP:  45; 6HR PCP:  0.11;

ROGERS CITY    DRIZZLE   34  33  96 NW16G22   29.81R WCI  23
TRAVERSE CITY  LGT RAIN  35  33  92 NW13      29.90R WCI  26
6HR MIN TEMP:  35; 6HR MAX TEMP:  47; 6HR PCP:  0.13;

$$
MIZ007>008-015-280100-
EASTERN UPPER MICHIGAN

CITY           SKY/WX    TMP DP  RH WIND       PRES   REMARKS
KINROSS        CLOUDY    30  28  93 NW20G31   29.79R WCI  18
6HR MIN TEMP:  30; 6HR MAX TEMP:  36; 6HR PCP:  0.09;

MACKINAC ISLAN CLOUDY    32  31  96 NW12G23   29.82R WCI  23
6HR MIN TEMP:  32; 6HR MAX TEMP:  40; 6HR PCP:  0.03;

NEWBERRY       CLOUDY    29  27  90 NW14G22   29.86R WCI  18
6HR MIN TEMP:  29; 6HR MAX TEMP:  32; 6HR PCP:  0.02;

S. S. MARIE    LGT SNOW  32  29  88 NW17G23   29.77R FOG     WCI  21
6HR MIN TEMP:  32; 6HR MAX TEMP:  35; 6HR PCP:  0.12;

MUNISING         N/A     33  25  72 N17G24    29.90R WCI  22
6HR MIN TEMP:  33; 6HR MAX TEMP:  35; 6HR PCP:  0.08;

$$
MIZ004>006-011>014-085-280100-
CENTRAL UPPER MICHIGAN

CITY           SKY/WX    TMP DP  RH WIND       PRES   REMARKS
MANISTIQUE     CLOUDY    31  29  94 NW8       29.90R WCI  23
6HR MIN TEMP:  31; 6HR MAX TEMP:  33;

ESCANABA       CLOUDY    32  28  86 W5        29.93R WCI  27
6HR MIN TEMP:  32; 6HR MAX TEMP:  34;

MENOMINEE      CLOUDY    32  30  93 W3        29.95R
6HR MIN TEMP:  32; 6HR MAX TEMP:  34;

SAWYER-GWINN   PTCLDY    27  23  86 NW3       29.89R
$$
MIZ001>003-009>011-084-280100-
WESTERN UPPER MICHIGAN

CITY           SKY/WX    TMP DP  RH WIND       PRES   REMARKS
IRON MOUNTAIN    N/A     26  23  88 W5        29.92R WCI  20
6HR MIN TEMP:  26; 6HR MAX TEMP:  32;

HOUGHTON       CLOUDY    26  21  81 W18       29.89S WCI  13
6HR MIN TEMP:  26; 6HR MAX TEMP:  29; 6HR PCP:  0.01;

COPPER HARBOR    N/A     29  23  78 N15G25    29.90S WCI  18
6HR MIN TEMP:  28; 6HR MAX TEMP:  30;

IRONWOOD       CLEAR     19  16  86 W6        29.95R WCI  11
6HR MIN TEMP:  19; 6HR MAX TEMP:  27;

$$

ABBREVIATIONS USED IN REMARKS
   TC - TEMPERATURE IN CELSIUS
  WCI - WIND CHILL INDEX
   HX - HEAT INDEX
  VSB - VISIBILITY



USA.gov is the U.S. government's official web portal to all federal, state and local government web resources and services.